Flag for U.S.A. Weather past 2 weeks in Glennallen, Alaska, U.S.A.

Now
52 °F

Sunny.


Feels Like: 51 °F
Forecast: 44 / 69 °F
Wind: 5 mph from Northwest

Location: Gulkana Airport

Current Time: Aug 20, 2014 at 10:48:20 PM

Latest Report: Aug 20, 2014 at 9:53 PM


Visibility: 10 mi

Pressure: 30.11 "Hg

Humidity: 77%

Dew point: 45 °F

Location of GlennallenLocation

Historic Weather in Glennallen — Graph

°F

Glennallen temperature yesterday

Maximum temperature yesterday: 68 °F (at 4:53 PM)
Minimum temperature yesterday: 39 °F (at 5:53 AM)
Average temperature yesterday: 53 °F

Past Weeks' High & Low Weather Summary

 TemperatureHumidityPressure
High73 °F (Aug 10, 6:53 PM)100% (Aug 14, 3:53 AM)30.11 "Hg (Aug 14, 3:53 AM)
Low34 °F (Aug 7, 5:53 AM)37% (Aug 10, 6:53 PM)29.61 "Hg (Aug 17, 1:53 PM)
Average55 °F70%29.81 "Hg
* Reported Aug 5 9:53 PM — Aug 20 9:53 PM, Glennallen, Weather by CustomWeather, © 2014

Note: Actual official high and low records may vary slightly from our data, if they occured in-between our weather recording intervals... More about our weather records

Advertising

Glennallen weather history for previous 24 hours

 ConditionsComfort  
Time TempWeatherWind HumidityBarometerVisibility
9:53 PM
Aug 20
52 °FSunny.5 mph77%30.11 "Hg10 mi
8:53 PM62 °FOvercast.6 mph56%30.09 "Hg10 mi
7:53 PM65 °FSunny.10 mph47%30.07 "Hg10 mi
6:53 PM68 °FSunny.7 mph40%30.07 "Hg10 mi
5:53 PM64 °FSunny.7 mph50%30.06 "Hg10 mi
4:53 PM71 °FSunny.N/A38%30.05 "Hg10 mi
3:53 PM68 °FSunny.No wind45%30.06 "Hg10 mi
2:53 PM67 °FSunny.5 mph47%30.07 "Hg10 mi
1:53 PM65 °FSunny.3 mph52%30.08 "Hg10 mi
12:53 PM64 °FSunny.6 mph54%30.09 "Hg10 mi
9:53 AM50 °FSunny.No wind80%30.11 "Hg10 mi
9:02 AM43 °FFog.No wind93%30.09 "Hg2 mi
8:03 AM41 °FFog.No wind96%30.08 "Hg2 mi
7:53 AM41 °FPartly sunny.No wind93%30.09 "Hg10 mi
6:53 AM36 °FClear.No wind92%30.09 "Hg10 mi
4:53 AM40 °FClear.5 mph97%30.06 "Hg10 mi
3:53 AM37 °FClear.5 mph96%30.06 "Hg10 mi
1:53 AM40 °FClear.3 mph93%30.03 "Hg10 mi
12:53 AM42 °FClear.5 mph92%30.02 "Hg10 mi
10:53 PM
Aug 19
45 °FClear.No wind93%30.01 "Hg10 mi
Weather by CustomWeather, © 2014

See weather overviewHow to use our weather pages